Time,TemperatureF,DewpointF,PressureIn,WindDirection,WindDirectionDegrees,WindSpeedMPH,WindSpeedGustMPH,Humidity,HourlyPrecipIn,Conditions,Clouds,dailyrainin,SoftwareType,DateUTC
2013-10-28 00:00:00,38.9,32.0,30.05,WSW,256,0.0,0.0,76,0.00,CLR,CLR,0.00,WeatherDisplay:10.36,2013-10-28 04:00:00,
2013-10-28 00:01:00,38.9,32.0,30.05,WSW,256,0.0,0.0,76,0.00,CLR,CLR,0.00,WeatherDisplay:10.36,2013-10-28 04:01:00,
2013-10-28 00:02:00,38.9,32.0,30.05,WSW,256,0.0,0.0,76,0.00,CLR,CLR,0.00,WeatherDisplay:10.36,2013-10-28 04:02:00,
2013-10-28 00:07:00,38.9,31.6,30.05,WSW,256,0.0,0.0,75,0.00,CLR,CLR,0.00,WeatherDisplay:10.36,2013-10-28 04:07:00,
2013-10-28 00:12:00,38.9,31.6,30.05,WSW,256,0.0,0.0,75,0.00,CLR,CLR,0.00,WeatherDisplay:10.36,2013-10-28 04:12:00,
2013-10-28 00:17:00,38.9,31.6,30.05,WSW,256,0.0,0.0,75,0.00,CLR,CLR,0.00,WeatherDisplay:10.36,2013-10-28 04:17:00,
2013-10-28 00:22:00,38.9,31.3,30.05,WSW,256,0.0,0.0,74,0.00,CLR,CLR,0.00,WeatherDisplay:10.36,2013-10-28 04:22:00,
2013-10-28 00:27:00,38.9,31.3,30.05,WSW,256,0.0,0.0,74,0.00,CLR,CLR,0.00,WeatherDisplay:10.36,2013-10-28 04:27:00,
2013-10-28 00:32:00,38.8,31.2,30.05,WSW,256,0.0,0.0,74,0.00,CLR,CLR,0.00,WeatherDisplay:10.36,2013-10-28 04:32:00,
2013-10-28 00:37:00,38.3,31.1,30.05,WSW,256,0.0,0.0,75,0.00,CLR,CLR,0.00,WeatherDisplay:10.36,2013-10-28 04:37:00,
2013-10-28 00:42:00,37.9,31.0,30.05,WSW,256,0.0,0.0,76,0.00,CLR,CLR,0.00,WeatherDisplay:10.36,2013-10-28 04:42:00,
2013-10-28 00:48:00,37.6,31.4,30.05,WSW,256,0.0,0.0,78,0.00,CLR,CLR,0.00,WeatherDisplay:10.36,2013-10-28 04:48:00,
2013-10-28 00:53:00,37.6,31.7,30.05,WSW,256,0.0,0.0,79,0.00,CLR,CLR,0.00,WeatherDisplay:10.36,2013-10-28 04:53:00,
2013-10-28 00:58:00,37.6,31.7,30.05,WSW,256,0.0,0.0,79,0.00,CLR,CLR,0.00,WeatherDisplay:10.36,2013-10-28 04:58:00,
2013-10-28 01:03:00,37.8,31.9,30.06,WSW,256,0.0,0.0,79,0.00,CLR,CLR,0.00,WeatherDisplay:10.36,2013-10-28 05:03:00,
2013-10-28 01:08:00,37.8,31.6,30.06,WSW,256,0.0,0.0,78,0.00,CLR,CLR,0.00,WeatherDisplay:10.36,2013-10-28 05:08:00,
2013-10-28 01:13:00,37.8,31.6,30.06,WSW,256,0.0,0.0,78,0.00,CLR,CLR,0.00,WeatherDisplay:10.36,2013-10-28 05:13:00,
2013-10-28 01:18:00,37.6,31.4,30.06,WSW,256,0.0,0.0,78,0.00,CLR,CLR,0.00,WeatherDisplay:10.36,2013-10-28 05:18:00,
2013-10-28 01:23:00,37.6,31.4,30.06,WSW,256,0.0,0.0,78,0.00,CLR,CLR,0.00,WeatherDisplay:10.36,2013-10-28 05:23:00,
2013-10-28 01:28:00,37.6,31.0,30.06,WSW,256,0.0,0.0,77,0.00,CLR,CLR,0.00,WeatherDisplay:10.36,2013-10-28 05:28:00,
2013-10-28 01:33:00,37.6,31.0,30.06,WSW,256,0.0,0.0,77,0.00,CLR,CLR,0.00,WeatherDisplay:10.36,2013-10-28 05:33:00,
2013-10-28 01:39:00,37.6,31.0,30.06,WSW,256,0.0,0.0,77,0.00,CLR,CLR,0.00,WeatherDisplay:10.36,2013-10-28 05:39:00,
2013-10-28 01:44:00,37.6,30.7,30.06,WSW,256,0.0,0.0,76,0.00,CLR,CLR,0.00,WeatherDisplay:10.36,2013-10-28 05:44:00,
2013-10-28 01:49:00,37.8,30.9,30.06,WSW,256,0.0,0.0,76,0.00,CLR,CLR,0.00,WeatherDisplay:10.36,2013-10-28 05:49:00,
2013-10-28 01:54:00,37.6,30.7,30.06,WSW,256,0.0,0.0,76,0.00,CLR,CLR,0.00,WeatherDisplay:10.36,2013-10-28 05:54:00,
2013-10-28 01:59:00,37.3,30.4,30.06,WSW,256,0.0,0.0,76,0.00,CLR,CLR,0.00,WeatherDisplay:10.36,2013-10-28 05:59:00,
2013-10-28 02:04:00,37.2,30.7,30.06,WSW,256,0.0,0.0,77,0.00,CLR,CLR,0.00,WeatherDisplay:10.36,2013-10-28 06:04:00,
2013-10-28 02:09:00,37.2,30.7,30.06,WSW,256,0.0,0.0,77,0.00,CLR,CLR,0.00,WeatherDisplay:10.36,2013-10-28 06:09:00,
2013-10-28 02:14:00,37.0,30.8,30.06,WSW,256,0.0,0.0,78,0.00,CLR,CLR,0.00,WeatherDisplay:10.36,2013-10-28 06:14:00,
2013-10-28 02:19:00,37.0,30.8,30.06,WSW,256,0.0,0.0,78,0.00,CLR,CLR,0.00,WeatherDisplay:10.36,2013-10-28 06:19:00,
2013-10-28 02:24:00,36.8,30.6,30.06,WSW,256,0.0,0.0,78,0.00,CLR,CLR,0.00,WeatherDisplay:10.36,2013-10-28 06:24:00,
2013-10-28 02:29:00,36.6,30.7,30.06,WSW,256,0.0,0.0,79,0.00,CLR,CLR,0.00,WeatherDisplay:10.36,2013-10-28 06:29:00,
2013-10-28 02:35:00,36.5,30.6,30.06,WSW,256,0.0,0.0,79,0.00,CLR,CLR,0.00,WeatherDisplay:10.36,2013-10-28 06:35:00,
2013-10-28 02:40:00,36.5,30.6,30.06,WSW,256,0.0,0.0,79,0.00,CLR,CLR,0.00,WeatherDisplay:10.36,2013-10-28 06:40:00,
2013-10-28 02:45:00,36.3,30.4,30.06,WSW,256,0.0,0.0,79,0.00,CLR,CLR,0.00,WeatherDisplay:10.36,2013-10-28 06:45:00,
2013-10-28 02:50:00,36.0,30.1,30.06,WSW,256,0.0,0.0,79,0.00,CLR,CLR,0.00,WeatherDisplay:10.36,2013-10-28 06:50:00,
2013-10-28 02:55:00,35.8,30.2,30.06,WSW,256,0.0,0.0,80,0.00,CLR,CLR,0.00,WeatherDisplay:10.36,2013-10-28 06:55:00,
2013-10-28 03:00:00,35.5,30.2,30.05,WSW,256,0.0,0.0,81,0.00,CLR,CLR,0.00,WeatherDisplay:10.36,2013-10-28 07:00:00,
2013-10-28 03:05:00,35.5,30.2,30.05,WSW,256,0.0,0.0,81,0.00,CLR,CLR,0.00,WeatherDisplay:10.36,2013-10-28 07:05:00,
2013-10-28 03:10:00,35.5,30.2,30.05,WSW,256,0.0,0.0,81,0.00,CLR,CLR,0.00,WeatherDisplay:10.36,2013-10-28 07:10:00,
2013-10-28 03:15:00,35.5,30.2,30.05,WSW,256,0.0,0.0,81,0.00,CLR,CLR,0.00,WeatherDisplay:10.36,2013-10-28 07:15:00,
2013-10-28 03:20:00,35.3,30.1,30.06,WSW,256,0.0,0.0,81,0.00,CLR,CLR,0.00,WeatherDisplay:10.36,2013-10-28 07:20:00,
2013-10-28 03:25:00,35.0,29.8,30.06,WSW,256,0.0,0.0,81,0.00,CLR,CLR,0.00,WeatherDisplay:10.36,2013-10-28 07:25:00,
2013-10-28 03:30:00,34.6,29.4,30.06,WSW,256,0.0,0.0,81,0.00,CLR,CLR,0.00,WeatherDisplay:10.36,2013-10-28 07:30:00,
2013-10-28 03:35:00,34.4,29.5,30.06,WSW,256,0.0,0.0,82,0.00,CLR,CLR,0.00,WeatherDisplay:10.36,2013-10-28 07:35:00,
2013-10-28 03:40:00,34.1,29.2,30.06,WSW,256,0.0,0.0,82,0.00,CLR,CLR,0.00,WeatherDisplay:10.36,2013-10-28 07:40:00,
2013-10-28 03:45:00,34.0,29.1,30.06,WSW,256,0.0,0.0,82,0.00,CLR,CLR,0.00,WeatherDisplay:10.36,2013-10-28 07:45:00,
2013-10-28 03:50:00,33.8,29.2,30.06,WSW,256,0.0,0.0,83,0.00,CLR,CLR,0.00,WeatherDisplay:10.36,2013-10-28 07:50:00,
2013-10-28 03:55:00,33.7,29.1,30.06,WSW,256,0.0,0.0,83,0.00,CLR,CLR,0.00,WeatherDisplay:10.36,2013-10-28 07:55:00,
2013-10-28 04:00:00,33.7,29.4,30.06,WSW,256,0.0,0.0,84,0.00,CLR,CLR,0.00,WeatherDisplay:10.36,2013-10-28 08:00:00,
2013-10-28 04:05:00,33.7,29.4,30.06,WSW,256,0.0,0.0,84,0.00,CLR,CLR,0.00,WeatherDisplay:10.36,2013-10-28 08:05:00,
2013-10-28 04:10:00,33.7,29.7,30.06,WSW,256,0.0,0.0,85,0.00,CLR,CLR,0.00,WeatherDisplay:10.36,2013-10-28 08:10:00,
2013-10-28 04:15:00,33.7,29.7,30.06,WSW,256,0.0,0.0,85,0.00,CLR,CLR,0.00,WeatherDisplay:10.36,2013-10-28 08:15:00,
2013-10-28 04:20:00,33.7,29.7,30.06,WSW,256,0.0,0.0,85,0.00,CLR,CLR,0.00,WeatherDisplay:10.36,2013-10-28 08:20:00,
2013-10-28 04:25:00,33.7,29.7,30.07,WSW,256,0.0,0.0,85,0.00,CLR,CLR,0.00,WeatherDisplay:10.36,2013-10-28 08:25:00,
2013-10-28 04:30:00,33.7,29.7,30.07,WSW,256,0.0,0.0,85,0.00,CLR,CLR,0.00,WeatherDisplay:10.36,2013-10-28 08:30:00,
2013-10-28 04:35:00,33.7,29.7,30.07,WSW,256,0.0,0.0,85,0.00,CLR,CLR,0.00,WeatherDisplay:10.36,2013-10-28 08:35:00,
2013-10-28 04:40:00,33.7,29.7,30.07,WSW,256,0.0,0.0,85,0.00,CLR,CLR,0.00,WeatherDisplay:10.36,2013-10-28 08:40:00,
2013-10-28 04:45:00,33.7,29.7,30.07,WSW,256,0.0,0.0,85,0.00,CLR,CLR,0.00,WeatherDisplay:10.36,2013-10-28 08:45:00,
2013-10-28 04:50:00,33.8,29.8,30.07,WSW,256,0.0,0.0,85,0.00,CLR,CLR,0.00,WeatherDisplay:10.36,2013-10-28 08:50:00,
2013-10-28 04:55:00,33.8,29.8,30.07,WSW,256,0.0,0.0,85,0.00,CLR,CLR,0.00,WeatherDisplay:10.36,2013-10-28 08:55:00,
2013-10-28 05:00:00,33.8,29.8,30.07,WSW,256,0.0,0.0,85,0.00,CLR,CLR,0.00,WeatherDisplay:10.36,2013-10-28 09:00:00,
2013-10-28 05:06:00,33.8,29.8,30.07,WSW,256,0.0,0.0,85,0.00,CLR,CLR,0.00,WeatherDisplay:10.36,2013-10-28 09:06:00,
2013-10-28 05:11:00,33.8,29.8,30.07,WSW,256,0.0,0.0,85,0.00,CLR,CLR,0.00,WeatherDisplay:10.36,2013-10-28 09:11:00,
2013-10-28 05:16:00,33.8,29.8,30.07,WSW,256,0.0,0.0,85,0.00,CLR,CLR,0.00,WeatherDisplay:10.36,2013-10-28 09:16:00,
2013-10-28 05:21:00,33.7,29.7,30.07,WSW,256,0.0,0.0,85,0.00,CLR,CLR,0.00,WeatherDisplay:10.36,2013-10-28 09:21:00,
2013-10-28 05:26:00,33.5,29.5,30.07,WSW,256,0.0,0.0,85,0.00,CLR,CLR,0.00,WeatherDisplay:10.36,2013-10-28 09:26:00,
2013-10-28 05:31:00,33.2,29.2,30.08,WSW,256,0.0,0.0,85,0.00,CLR,CLR,0.00,WeatherDisplay:10.36,2013-10-28 09:31:00,
2013-10-28 05:36:00,32.8,28.8,30.08,WSW,256,0.0,0.0,85,0.00,CLR,CLR,0.00,WeatherDisplay:10.36,2013-10-28 09:36:00,
2013-10-28 05:41:00,32.7,28.7,30.08,WSW,256,0.0,0.0,85,0.00,CLR,CLR,0.00,WeatherDisplay:10.36,2013-10-28 09:41:00,
2013-10-28 05:46:00,32.5,28.5,30.08,WSW,256,0.0,0.0,85,0.00,CLR,CLR,0.00,WeatherDisplay:10.36,2013-10-28 09:46:00,
2013-10-28 05:51:00,32.4,28.4,30.08,WSW,256,0.0,0.0,85,0.00,CLR,CLR,0.00,WeatherDisplay:10.36,2013-10-28 09:51:00,
2013-10-28 05:56:00,32.2,28.5,30.08,WSW,256,0.0,0.0,86,0.00,CLR,CLR,0.00,WeatherDisplay:10.36,2013-10-28 09:56:00,
2013-10-28 06:01:00,32.2,28.5,30.08,WSW,256,0.0,0.0,86,0.00,CLR,CLR,0.00,WeatherDisplay:10.36,2013-10-28 10:01:00,
2013-10-28 06:06:00,32.1,28.4,30.08,WSW,256,0.0,0.0,86,0.00,CLR,CLR,0.00,WeatherDisplay:10.36,2013-10-28 10:06:00,
2013-10-28 06:11:00,32.1,28.4,30.08,WSW,256,0.0,0.0,86,0.00,CLR,CLR,0.00,WeatherDisplay:10.36,2013-10-28 10:11:00,
2013-10-28 06:16:00,31.9,28.2,30.08,WSW,256,0.0,0.0,86,0.00,CLR,CLR,0.00,WeatherDisplay:10.36,2013-10-28 10:16:00,
2013-10-28 06:22:00,31.8,28.1,30.09,WSW,256,0.0,0.0,86,0.00,CLR,CLR,0.00,WeatherDisplay:10.36,2013-10-28 10:22:00,
2013-10-28 06:27:00,31.6,28.2,30.09,WSW,256,0.0,0.0,87,0.00,CLR,CLR,0.00,WeatherDisplay:10.36,2013-10-28 10:27:00,
2013-10-28 06:32:00,31.5,28.1,30.09,WSW,256,0.0,0.0,87,0.00,CLR,CLR,0.00,WeatherDisplay:10.36,2013-10-28 10:32:00,
2013-10-28 06:37:00,31.5,28.1,30.09,WSW,256,0.0,0.0,87,0.00,CLR,CLR,0.00,WeatherDisplay:10.36,2013-10-28 10:37:00,
2013-10-28 06:42:00,31.5,28.1,30.09,WSW,256,0.0,0.0,87,0.00,CLR,CLR,0.00,WeatherDisplay:10.36,2013-10-28 10:42:00,
2013-10-28 06:47:00,31.6,28.2,30.09,WSW,256,0.0,0.0,87,0.00,CLR,CLR,0.00,WeatherDisplay:10.36,2013-10-28 10:47:00,
2013-10-28 06:52:00,31.6,28.2,30.09,WSW,256,0.0,0.0,87,0.00,CLR,CLR,0.00,WeatherDisplay:10.36,2013-10-28 10:52:00,
2013-10-28 06:57:00,31.6,28.5,30.10,WSW,256,0.0,0.0,88,0.00,CLR,CLR,0.00,WeatherDisplay:10.36,2013-10-28 10:57:00,
2013-10-28 07:02:00,31.8,28.7,30.10,WSW,256,0.0,0.0,88,0.00,CLR,CLR,0.00,WeatherDisplay:10.36,2013-10-28 11:02:00,
2013-10-28 07:07:00,31.6,28.5,30.11,WSW,256,0.0,0.0,88,0.00,CLR,CLR,0.00,WeatherDisplay:10.36,2013-10-28 11:07:00,
2013-10-28 07:12:00,31.6,28.5,30.11,WSW,256,0.0,0.0,88,0.00,CLR,CLR,0.00,WeatherDisplay:10.36,2013-10-28 11:12:00,
2013-10-28 07:17:00,31.6,28.5,30.11,WSW,256,0.0,0.0,88,0.00,CLR,CLR,0.00,WeatherDisplay:10.36,2013-10-28 11:17:00,
2013-10-28 07:22:00,31.6,28.5,30.11,WSW,256,0.0,0.0,88,0.00,CLR,CLR,0.00,WeatherDisplay:10.36,2013-10-28 11:22:00,
2013-10-28 07:27:00,31.8,28.7,30.11,WSW,256,0.0,0.0,88,0.00,CLR,CLR,0.00,WeatherDisplay:10.36,2013-10-28 11:27:00,
2013-10-28 07:32:00,31.9,29.0,30.11,WSW,256,0.0,0.0,89,0.00,CLR,CLR,0.00,WeatherDisplay:10.36,2013-10-28 11:32:00,
2013-10-28 07:37:00,31.9,29.0,30.12,WSW,256,0.0,0.0,89,0.00,CLR,CLR,0.00,WeatherDisplay:10.36,2013-10-28 11:37:00,
2013-10-28 07:42:00,32.1,29.2,30.12,WSW,256,0.0,0.0,89,0.00,CLR,CLR,0.00,WeatherDisplay:10.36,2013-10-28 11:42:00,
2013-10-28 07:47:00,32.2,29.3,30.12,WSW,256,0.0,0.0,89,0.00,CLR,CLR,0.00,WeatherDisplay:10.36,2013-10-28 11:47:00,
2013-10-28 07:52:00,32.4,29.5,30.12,WSW,256,0.0,0.0,89,0.00,CLR,CLR,0.00,WeatherDisplay:10.36,2013-10-28 11:52:00,
2013-10-28 07:58:00,32.5,29.6,30.12,WSW,256,0.0,0.0,89,0.00,CLR,CLR,0.00,WeatherDisplay:10.36,2013-10-28 11:58:00,
2013-10-28 08:03:00,32.7,29.8,30.12,WSW,256,0.0,0.0,89,0.00,CLR,CLR,0.00,WeatherDisplay:10.36,2013-10-28 12:03:00,
2013-10-28 08:08:00,32.8,29.9,30.13,WSW,256,0.0,0.0,89,0.00,CLR,CLR,0.00,WeatherDisplay:10.36,2013-10-28 12:08:00,
2013-10-28 08:13:00,33.1,30.2,30.13,WSW,256,0.0,0.0,89,0.00,CLR,CLR,0.00,WeatherDisplay:10.36,2013-10-28 12:13:00,
2013-10-28 08:18:00,33.4,30.5,30.13,WSW,256,0.0,0.0,89,0.00,CLR,CLR,0.00,WeatherDisplay:10.36,2013-10-28 12:18:00,
2013-10-28 08:23:00,33.7,30.8,30.14,WSW,256,0.0,0.0,89,0.00,CLR,CLR,0.00,WeatherDisplay:10.36,2013-10-28 12:23:00,
2013-10-28 08:28:00,34.0,31.1,30.14,WSW,256,0.0,0.0,89,0.00,CLR,CLR,0.00,WeatherDisplay:10.36,2013-10-28 12:28:00,
2013-10-28 08:33:00,34.3,31.1,30.14,WSW,256,0.0,0.0,88,0.00,CLR,CLR,0.00,WeatherDisplay:10.36,2013-10-28 12:33:00,
2013-10-28 08:38:00,34.6,31.4,30.14,WSW,256,0.0,0.0,88,0.00,CLR,CLR,0.00,WeatherDisplay:10.36,2013-10-28 12:38:00,
2013-10-28 08:43:00,34.9,31.4,30.14,WSW,256,0.0,0.0,87,0.00,CLR,CLR,0.00,WeatherDisplay:10.36,2013-10-28 12:43:00,
2013-10-28 08:48:00,35.3,31.8,30.14,WSW,256,0.0,0.0,87,0.00,CLR,CLR,0.00,WeatherDisplay:10.36,2013-10-28 12:48:00,
2013-10-28 08:53:00,35.8,32.0,30.14,WSW,256,0.0,0.0,86,0.00,CLR,CLR,0.00,WeatherDisplay:10.36,2013-10-28 12:53:00,
2013-10-28 08:58:00,36.3,31.9,30.14,WSW,256,0.0,0.0,84,0.00,CLR,CLR,0.00,WeatherDisplay:10.36,2013-10-28 12:58:00,
2013-10-28 09:03:00,36.9,32.2,30.15,WSW,256,0.0,0.0,83,0.00,CLR,CLR,0.00,WeatherDisplay:10.36,2013-10-28 13:03:00,
2013-10-28 09:08:00,37.5,32.2,30.15,WSW,256,0.0,0.0,81,0.00,CLR,CLR,0.00,WeatherDisplay:10.36,2013-10-28 13:08:00,
2013-10-28 09:13:00,38.0,32.1,30.15,WSW,239,1.2,0.0,79,0.00,CLR,CLR,0.00,WeatherDisplay:10.36,2013-10-28 13:13:00,
2013-10-28 09:18:00,38.6,32.0,30.15,WSW,239,0.0,0.0,77,0.00,CLR,CLR,0.00,WeatherDisplay:10.36,2013-10-28 13:18:00,
2013-10-28 09:23:00,39.1,32.2,30.15,SW,235,1.2,1.2,76,0.00,CLR,CLR,0.00,WeatherDisplay:10.36,2013-10-28 13:23:00,
2013-10-28 09:28:00,39.8,32.2,30.16,SW,235,1.2,0.0,74,0.00,CLR,CLR,0.00,WeatherDisplay:10.36,2013-10-28 13:28:00,
2013-10-28 09:33:00,40.3,32.0,30.16,SW,235,0.0,0.0,72,0.00,CLR,CLR,0.00,WeatherDisplay:10.36,2013-10-28 13:33:00,
2013-10-28 09:38:00,40.9,31.9,30.16,SW,235,0.0,0.0,70,0.00,CLR,CLR,0.00,WeatherDisplay:10.36,2013-10-28 13:38:00,
2013-10-28 09:43:00,41.5,32.1,30.16,SW,234,3.0,3.0,69,0.00,CLR,CLR,0.00,WeatherDisplay:10.36,2013-10-28 13:43:00,
2013-10-28 09:48:00,42.2,32.4,30.15,SW,234,0.0,0.0,68,0.00,CLR,CLR,0.00,WeatherDisplay:10.36,2013-10-28 13:48:00,
2013-10-28 09:54:00,42.8,32.6,30.16,SW,234,2.3,2.3,67,0.00,CLR,CLR,0.00,WeatherDisplay:10.36,2013-10-28 13:54:00,
2013-10-28 09:59:00,43.5,32.5,30.15,SW,230,1.2,1.2,65,0.00,CLR,CLR,0.00,WeatherDisplay:10.36,2013-10-28 13:59:00,
2013-10-28 10:04:00,44.1,32.3,30.15,South,181,3.5,0.0,63,0.00,CLR,CLR,0.00,WeatherDisplay:10.36,2013-10-28 14:04:00,
2013-10-28 10:09:00,44.6,32.0,30.15,South,181,0.0,0.0,61,0.00,CLR,CLR,0.00,WeatherDisplay:10.36,2013-10-28 14:09:00,
2013-10-28 10:14:00,45.2,32.5,30.15,South,181,1.2,1.2,61,0.00,CLR,CLR,0.00,WeatherDisplay:10.36,2013-10-28 14:14:00,
2013-10-28 10:19:00,46.1,32.6,30.15,South,181,1.2,0.0,59,0.00,CLR,CLR,0.00,WeatherDisplay:10.36,2013-10-28 14:19:00,
2013-10-28 10:24:00,46.7,32.7,30.15,SSE,158,2.3,2.3,58,0.00,CLR,CLR,0.00,WeatherDisplay:10.36,2013-10-28 14:24:00,
2013-10-28 10:29:00,47.6,32.7,30.15,South,183,2.3,2.3,56,0.00,CLR,CLR,0.00,WeatherDisplay:10.36,2013-10-28 14:29:00,
2013-10-28 10:34:00,48.3,32.4,30.15,SSW,197,0.0,0.0,54,0.00,CLR,CLR,0.00,WeatherDisplay:10.36,2013-10-28 14:34:00,
2013-10-28 10:39:00,49.2,32.3,30.15,South,176,1.2,1.2,52,0.00,CLR,CLR,0.00,WeatherDisplay:10.36,2013-10-28 14:39:00,
2013-10-28 10:44:00,49.9,32.5,30.15,South,191,3.5,3.5,51,0.00,CLR,CLR,0.00,WeatherDisplay:10.36,2013-10-28 14:44:00,
2013-10-28 10:49:00,50.5,32.0,30.15,South,186,3.5,3.5,49,0.00,CLR,CLR,0.00,WeatherDisplay:10.36,2013-10-28 14:49:00,
2013-10-28 10:54:00,51.1,32.1,30.14,South,178,3.5,3.5,48,0.00,CLR,CLR,0.00,WeatherDisplay:10.36,2013-10-28 14:54:00,
2013-10-28 11:00:00,51.6,32.0,30.14,WSW,255,5.8,5.8,47,0.00,CLR,CLR,0.00,WeatherDisplay:10.36,2013-10-28 15:00:00,
2013-10-28 11:05:00,52.0,31.8,30.14,SW,233,3.5,3.5,46,0.00,CLR,CLR,0.00,WeatherDisplay:10.36,2013-10-28 15:05:00,
2013-10-28 11:10:00,52.8,32.0,30.14,WSW,255,3.5,3.5,45,0.00,CLR,CLR,0.00,WeatherDisplay:10.36,2013-10-28 15:10:00,
2013-10-28 11:15:00,53.5,32.1,30.14,SW,220,2.3,2.3,44,0.00,CLR,CLR,0.00,WeatherDisplay:10.36,2013-10-28 15:15:00,
2013-10-28 11:20:00,54.1,30.9,30.14,SSW,209,3.0,6.0,41,0.00,CLR,CLR,0.00,WeatherDisplay:10.36,2013-10-28 15:20:00,
2013-10-28 11:25:00,54.7,30.8,30.14,WSW,252,4.6,4.6,40,0.00,CLR,CLR,0.00,WeatherDisplay:10.36,2013-10-28 15:25:00,
2013-10-28 11:30:00,55.3,30.7,30.14,West,276,4.6,4.6,39,0.00,CLR,CLR,0.00,WeatherDisplay:10.36,2013-10-28 15:30:00,
2013-10-28 11:35:00,55.9,30.0,30.14,SSW,198,5.0,5.0,37,0.00,CLR,CLR,0.00,WeatherDisplay:10.36,2013-10-28 15:35:00,
2013-10-28 11:40:00,56.6,30.6,30.14,SSE,148,13.0,13.0,37,0.00,CLR,CLR,0.00,WeatherDisplay:10.36,2013-10-28 15:40:00,
2013-10-28 11:45:00,56.7,30.0,30.14,SSW,202,4.6,4.6,36,0.00,CLR,CLR,0.00,WeatherDisplay:10.36,2013-10-28 15:45:00,
2013-10-28 11:50:00,57.0,30.3,30.14,SSW,203,6.0,6.0,36,0.00,CLR,CLR,0.00,WeatherDisplay:10.36,2013-10-28 15:50:00,
2013-10-28 11:55:00,57.3,30.5,30.14,SSW,199,5.0,5.0,36,0.00,CLR,CLR,0.00,WeatherDisplay:10.36,2013-10-28 15:55:00,
2013-10-28 12:00:00,57.8,30.3,30.13,SW,226,9.0,9.0,35,0.00,CLR,CLR,0.00,WeatherDisplay:10.36,2013-10-28 16:00:00,
2013-10-28 12:06:00,57.6,30.1,30.13,SW,216,10.4,10.4,35,0.00,CLR,CLR,0.00,WeatherDisplay:10.36,2013-10-28 16:06:00,
2013-10-28 12:11:00,57.6,30.1,30.12,SW,236,11.5,11.5,35,0.00,CLR,CLR,0.00,WeatherDisplay:10.36,2013-10-28 16:11:00,
2013-10-28 12:16:00,58.3,30.7,30.12,South,171,4.6,4.6,35,0.00,CLR,CLR,0.00,WeatherDisplay:10.36,2013-10-28 16:16:00,
2013-10-28 12:21:00,59.0,31.4,30.12,SSE,149,1.2,1.2,35,0.00,CLR,CLR,0.00,WeatherDisplay:10.36,2013-10-28 16:21:00,
2013-10-28 12:26:00,59.5,31.1,30.12,WNW,302,2.3,2.3,34,0.00,CLR,CLR,0.00,WeatherDisplay:10.36,2013-10-28 16:26:00,
2013-10-28 12:31:00,59.5,31.1,30.12,WSW,258,7.0,7.0,34,0.00,CLR,CLR,0.00,WeatherDisplay:10.36,2013-10-28 16:31:00,
2013-10-28 12:36:00,59.2,31.5,30.12,NW,315,5.0,5.0,35,0.00,CLR,CLR,0.00,WeatherDisplay:10.36,2013-10-28 16:36:00,
2013-10-28 12:41:00,59.0,31.4,30.12,WSW,257,10.4,10.4,35,0.00,CLR,CLR,0.00,WeatherDisplay:10.36,2013-10-28 16:41:00,
2013-10-28 12:46:00,59.3,31.6,30.11,SSW,200,3.5,3.5,35,0.00,CLR,CLR,0.00,WeatherDisplay:10.36,2013-10-28 16:46:00,
2013-10-28 12:51:00,59.5,31.8,30.11,SSW,198,9.2,9.2,35,0.00,CLR,CLR,0.00,WeatherDisplay:10.36,2013-10-28 16:51:00,
2013-10-28 12:56:00,59.5,31.1,30.11,WSW,239,3.5,3.5,34,0.00,CLR,CLR,0.00,WeatherDisplay:10.36,2013-10-28 16:56:00,
2013-10-28 13:01:00,59.6,31.9,30.11,SW,236,3.5,3.5,35,0.00,CLR,CLR,0.00,WeatherDisplay:10.36,2013-10-28 17:01:00,
2013-10-28 13:06:00,59.8,32.1,30.11,WSW,248,6.0,6.0,35,0.00,CLR,CLR,0.00,WeatherDisplay:10.36,2013-10-28 17:06:00,
2013-10-28 13:11:00,59.9,31.4,30.11,WNW,291,6.0,6.0,34,0.00,CLR,CLR,0.00,WeatherDisplay:10.36,2013-10-28 17:11:00,
2013-10-28 13:16:00,59.6,31.2,30.11,West,264,5.0,5.0,34,0.00,CLR,CLR,0.00,WeatherDisplay:10.36,2013-10-28 17:16:00,
2013-10-28 13:21:00,59.8,32.1,30.11,West,262,6.0,6.0,35,0.00,CLR,CLR,0.00,WeatherDisplay:10.36,2013-10-28 17:21:00,
2013-10-28 13:53:00,60.4,32.6,30.10,SW,231,4.6,4.6,35,0.00,CLR,CLR,0.00,WeatherDisplay:10.36,2013-10-28 17:53:00,
2013-10-28 13:58:00,60.4,32.6,30.10,SW,231,4.6,4.6,35,0.00,CLR,CLR,0.00,WeatherDisplay:10.36,2013-10-28 17:58:00,
2013-10-28 14:11:00,60.7,31.4,30.09,SW,235,2.3,2.3,33,0.00,CLR,CLR,0.00,WeatherDisplay:10.36,2013-10-28 18:11:00,
2013-10-28 14:14:00,60.7,31.4,30.09,South,178,6.9,6.9,33,0.00,CLR,CLR,0.00,WeatherDisplay:10.36,2013-10-28 18:14:00,
2013-10-28 14:16:00,60.7,31.4,30.09,South,178,6.9,6.9,33,0.00,CLR,CLR,0.00,WeatherDisplay:10.36,2013-10-28 18:16:00,
2013-10-28 14:21:00,60.7,31.4,30.09,South,178,6.9,6.9,33,0.00,CLR,CLR,0.00,WeatherDisplay:10.36,2013-10-28 18:21:00,
2013-10-28 14:31:00,61.2,31.1,30.10,SSE,166,6.9,6.9,32,0.00,CLR,CLR,0.00,WeatherDisplay:10.36,2013-10-28 18:31:00,
2013-10-28 14:36:00,61.2,31.1,30.10,SSE,167,6.9,6.9,32,0.00,CLR,CLR,0.00,WeatherDisplay:10.36,2013-10-28 18:36:00,
2013-10-28 14:41:00,61.2,31.1,30.10,SSE,167,6.9,6.9,32,0.00,CLR,CLR,0.00,WeatherDisplay:10.36,2013-10-28 18:41:00,
2013-10-28 14:48:00,61.5,31.3,30.09,South,182,6.9,6.9,32,0.00,CLR,CLR,0.00,WeatherDisplay:10.36,2013-10-28 18:48:00,
2013-10-28 14:54:00,61.5,31.3,30.09,South,182,6.9,6.9,32,0.00,CLR,CLR,0.00,WeatherDisplay:10.36,2013-10-28 18:54:00,
2013-10-28 15:05:00,61.6,31.4,30.09,SSW,195,6.9,6.9,32,0.00,CLR,CLR,0.00,WeatherDisplay:10.36,2013-10-28 19:05:00,
2013-10-28 15:10:00,61.6,31.4,30.09,SSW,195,6.9,6.9,32,0.00,CLR,CLR,0.00,WeatherDisplay:10.36,2013-10-28 19:10:00,
2013-10-28 15:15:00,61.6,31.4,30.09,SSW,195,6.9,6.9,32,0.00,CLR,CLR,0.00,WeatherDisplay:10.36,2013-10-28 19:15:00,
2013-10-28 15:40:00,61.8,31.6,30.09,West,262,2.3,2.3,32,0.00,CLR,CLR,0.00,WeatherDisplay:10.36,2013-10-28 19:40:00,
2013-10-28 15:45:00,61.8,30.0,30.09,SSW,207,6.9,6.9,30,0.00,CLR,CLR,0.00,WeatherDisplay:10.36,2013-10-28 19:45:00,
2013-10-28 15:50:00,61.8,30.8,30.09,WSW,245,3.5,3.5,31,0.00,CLR,CLR,0.00,WeatherDisplay:10.36,2013-10-28 19:50:00,
2013-10-28 15:55:00,62.0,31.0,30.09,SW,217,3.5,0.0,31,0.00,CLR,CLR,0.00,WeatherDisplay:10.36,2013-10-28 19:55:00,
2013-10-28 16:00:00,62.1,30.3,30.09,WSW,257,1.2,1.2,30,0.00,CLR,CLR,0.00,WeatherDisplay:10.36,2013-10-28 20:00:00,
2013-10-28 16:05:00,62.4,31.3,30.10,SSW,207,1.2,1.2,31,0.00,CLR,CLR,0.00,WeatherDisplay:10.36,2013-10-28 20:05:00,
2013-10-28 16:10:00,62.6,30.7,30.10,SW,222,1.2,1.2,30,0.00,CLR,CLR,0.00,WeatherDisplay:10.36,2013-10-28 20:10:00,
2013-10-28 16:15:00,62.6,30.7,30.10,SW,214,3.5,0.0,30,0.00,CLR,CLR,0.00,WeatherDisplay:10.36,2013-10-28 20:15:00,
2013-10-28 16:20:00,62.6,31.5,30.10,SW,233,0.0,0.0,31,0.00,CLR,CLR,0.00,WeatherDisplay:10.36,2013-10-28 20:20:00,
2013-10-28 16:25:00,62.4,30.5,30.10,SSW,195,0.0,0.0,30,0.00,CLR,CLR,0.00,WeatherDisplay:10.36,2013-10-28 20:25:00,
2013-10-28 16:30:00,62.1,30.3,30.10,SSW,195,1.2,0.0,30,0.00,CLR,CLR,0.00,WeatherDisplay:10.36,2013-10-28 20:30:00,
2013-10-28 16:35:00,61.8,30.8,30.10,SSW,195,0.0,0.0,31,0.00,CLR,CLR,0.00,WeatherDisplay:10.36,2013-10-28 20:35:00,
2013-10-28 16:40:00,61.6,31.4,30.10,SSW,195,0.0,0.0,32,0.00,CLR,CLR,0.00,WeatherDisplay:10.36,2013-10-28 20:40:00,
2013-10-28 16:45:00,61.2,31.1,30.11,WSW,243,0.0,0.0,32,0.00,CLR,CLR,0.00,WeatherDisplay:10.36,2013-10-28 20:45:00,
2013-10-28 16:50:00,60.9,30.8,30.11,SW,224,3.5,0.0,32,0.00,CLR,CLR,0.00,WeatherDisplay:10.36,2013-10-28 20:50:00,
2013-10-28 16:55:00,60.5,30.5,30.11,SW,215,0.0,0.0,32,0.00,CLR,CLR,0.00,WeatherDisplay:10.36,2013-10-28 20:55:00,
2013-10-28 17:01:00,60.4,30.4,30.11,SW,224,0.0,0.0,32,0.00,CLR,CLR,0.00,WeatherDisplay:10.36,2013-10-28 21:01:00,
2013-10-28 17:06:00,60.2,31.0,30.11,SSW,211,0.0,0.0,33,0.00,CLR,CLR,0.00,WeatherDisplay:10.36,2013-10-28 21:06:00,
2013-10-28 17:11:00,60.1,30.9,30.11,SSW,211,0.0,0.0,33,0.00,CLR,CLR,0.00,WeatherDisplay:10.36,2013-10-28 21:11:00,
2013-10-28 17:16:00,59.9,31.4,30.11,SSW,211,0.0,0.0,34,0.00,CLR,CLR,0.00,WeatherDisplay:10.36,2013-10-28 21:16:00,
2013-10-28 17:21:00,59.8,31.3,30.11,SSW,211,0.0,0.0,34,0.00,CLR,CLR,0.00,WeatherDisplay:10.36,2013-10-28 21:21:00,
2013-10-28 17:26:00,59.5,31.1,30.11,SSW,211,0.0,0.0,34,0.00,CLR,CLR,0.00,WeatherDisplay:10.36,2013-10-28 21:26:00,
2013-10-28 17:31:00,59.3,31.6,30.11,SSW,211,0.0,0.0,35,0.00,CLR,CLR,0.00,WeatherDisplay:10.36,2013-10-28 21:31:00,
2013-10-28 17:36:00,59.0,32.1,30.12,SSW,211,0.0,0.0,36,0.00,CLR,CLR,0.00,WeatherDisplay:10.36,2013-10-28 21:36:00,
2013-10-28 17:41:00,58.7,32.5,30.12,SSW,211,0.0,0.0,37,0.00,CLR,CLR,0.00,WeatherDisplay:10.36,2013-10-28 21:41:00,
2013-10-28 17:46:00,58.3,32.1,30.12,SSW,211,0.0,0.0,37,0.00,CLR,CLR,0.00,WeatherDisplay:10.36,2013-10-28 21:46:00,
2013-10-28 17:51:00,57.8,31.0,30.12,WSW,245,0.0,0.0,36,0.00,CLR,CLR,0.00,WeatherDisplay:10.36,2013-10-28 21:51:00,
2013-10-28 17:56:00,57.6,30.8,30.13,WSW,245,0.0,0.0,36,0.00,CLR,CLR,0.00,WeatherDisplay:10.36,2013-10-28 21:56:00,
2013-10-28 18:01:00,57.5,30.7,30.13,WNW,288,2.3,2.3,36,0.00,CLR,CLR,0.00,WeatherDisplay:10.36,2013-10-28 22:01:00,
2013-10-28 18:06:00,57.3,30.5,30.14,WNW,288,0.0,0.0,36,0.00,CLR,CLR,0.00,WeatherDisplay:10.36,2013-10-28 22:06:00,
2013-10-28 18:11:00,57.0,31.0,30.14,WNW,288,1.2,1.2,37,0.00,CLR,CLR,0.00,WeatherDisplay:10.36,2013-10-28 22:11:00,
2013-10-28 18:16:00,56.7,31.4,30.14,WNW,288,0.0,0.0,38,0.00,CLR,CLR,0.00,WeatherDisplay:10.36,2013-10-28 22:16:00,
2013-10-28 18:21:00,56.6,31.3,30.14,WNW,288,0.0,0.0,38,0.00,CLR,CLR,0.00,WeatherDisplay:10.36,2013-10-28 22:21:00,
2013-10-28 18:26:00,56.5,32.4,30.15,WNW,288,0.0,0.0,40,0.00,CLR,CLR,0.00,WeatherDisplay:10.36,2013-10-28 22:26:00,
2013-10-28 18:31:00,56.2,32.2,30.15,WNW,288,0.0,0.0,40,0.00,CLR,CLR,0.00,WeatherDisplay:10.36,2013-10-28 22:31:00,
2013-10-28 18:36:00,55.7,32.3,30.15,WNW,288,0.0,0.0,41,0.00,CLR,CLR,0.00,WeatherDisplay:10.36,2013-10-28 22:36:00,
2013-10-28 18:41:00,55.4,32.7,30.16,WNW,288,0.0,0.0,42,0.00,CLR,CLR,0.00,WeatherDisplay:10.36,2013-10-28 22:41:00,
2013-10-28 18:46:00,55.1,31.8,30.16,WNW,288,0.0,0.0,41,0.00,CLR,CLR,0.00,WeatherDisplay:10.36,2013-10-28 22:46:00,
2013-10-28 18:51:00,54.8,32.7,30.16,WNW,288,0.0,0.0,43,0.00,CLR,CLR,0.00,WeatherDisplay:10.36,2013-10-28 22:51:00,
2013-10-28 18:56:00,54.5,32.4,30.16,WNW,288,0.0,0.0,43,0.00,CLR,CLR,0.00,WeatherDisplay:10.36,2013-10-28 22:56:00,
2013-10-28 19:01:00,54.2,32.7,30.16,WNW,288,0.0,0.0,44,0.00,CLR,CLR,0.00,WeatherDisplay:10.36,2013-10-28 23:01:00,
2013-10-28 19:06:00,54.1,32.6,30.17,WNW,288,0.0,0.0,44,0.00,CLR,CLR,0.00,WeatherDisplay:10.36,2013-10-28 23:06:00,
2013-10-28 19:11:00,53.9,33.0,30.17,WNW,288,0.0,0.0,45,0.00,CLR,CLR,0.00,WeatherDisplay:10.36,2013-10-28 23:11:00,
2013-10-28 19:16:00,53.8,32.9,30.17,WNW,288,0.0,0.0,45,0.00,CLR,CLR,0.00,WeatherDisplay:10.36,2013-10-28 23:16:00,
2013-10-28 19:21:00,53.5,33.7,30.17,WNW,288,0.0,0.0,47,0.00,CLR,CLR,0.00,WeatherDisplay:10.36,2013-10-28 23:21:00,
2013-10-28 19:26:00,52.9,33.2,30.17,WNW,288,2.3,0.0,47,0.00,CLR,CLR,0.00,WeatherDisplay:10.36,2013-10-28 23:26:00,
2013-10-28 19:31:00,52.6,33.5,30.18,WNW,288,1.2,0.0,48,0.00,CLR,CLR,0.00,WeatherDisplay:10.36,2013-10-28 23:31:00,
2013-10-28 19:36:00,52.5,33.4,30.18,WNW,288,0.0,0.0,48,0.00,CLR,CLR,0.00,WeatherDisplay:10.36,2013-10-28 23:36:00,
2013-10-28 19:41:00,52.3,33.2,30.18,WNW,288,0.0,0.0,48,0.00,CLR,CLR,0.00,WeatherDisplay:10.36,2013-10-28 23:41:00,
2013-10-28 19:46:00,52.2,33.6,30.18,WNW,288,0.0,0.0,49,0.00,CLR,CLR,0.00,WeatherDisplay:10.36,2013-10-28 23:46:00,
2013-10-28 19:52:00,51.7,33.6,30.19,WNW,288,0.0,0.0,50,0.00,CLR,CLR,0.00,WeatherDisplay:10.36,2013-10-28 23:52:00,
2013-10-28 19:57:00,51.4,33.4,30.19,WNW,288,0.0,0.0,50,0.00,CLR,CLR,0.00,WeatherDisplay:10.36,2013-10-28 23:57:00,
2013-10-28 20:02:00,51.1,33.6,30.19,WNW,288,0.0,0.0,51,0.00,CLR,CLR,0.00,WeatherDisplay:10.36,2013-10-29 00:02:00,
2013-10-28 20:07:00,51.1,33.6,30.19,WNW,288,0.0,0.0,51,0.00,CLR,CLR,0.00,WeatherDisplay:10.36,2013-10-29 00:07:00,
2013-10-28 20:12:00,51.1,33.6,30.19,WNW,288,0.0,0.0,51,0.00,CLR,CLR,0.00,WeatherDisplay:10.36,2013-10-29 00:12:00,
2013-10-28 20:17:00,51.1,33.6,30.19,WNW,288,0.0,0.0,51,0.00,CLR,CLR,0.00,WeatherDisplay:10.36,2013-10-29 00:17:00,
2013-10-28 20:22:00,51.0,34.0,30.19,WNW,288,0.0,0.0,52,0.00,CLR,CLR,0.00,WeatherDisplay:10.36,2013-10-29 00:22:00,
2013-10-28 20:27:00,50.7,33.7,30.19,WNW,288,0.0,0.0,52,0.00,CLR,CLR,0.00,WeatherDisplay:10.36,2013-10-29 00:27:00,
2013-10-28 20:33:00,50.5,34.0,30.19,WNW,288,0.0,0.0,53,0.00,CLR,CLR,0.00,WeatherDisplay:10.36,2013-10-29 00:33:00,
2013-10-28 20:38:00,50.1,33.6,30.19,WNW,288,0.0,0.0,53,0.00,CLR,CLR,0.00,WeatherDisplay:10.36,2013-10-29 00:38:00,
2013-10-28 20:43:00,49.9,33.9,30.20,WNW,288,0.0,0.0,54,0.00,CLR,CLR,0.00,WeatherDisplay:10.36,2013-10-29 00:43:00,
2013-10-28 20:48:00,49.6,34.1,30.20,WNW,288,0.0,0.0,55,0.00,CLR,CLR,0.00,WeatherDisplay:10.36,2013-10-29 00:48:00,
2013-10-28 20:53:00,49.4,33.9,30.20,WNW,288,0.0,0.0,55,0.00,CLR,CLR,0.00,WeatherDisplay:10.36,2013-10-29 00:53:00,
2013-10-28 20:58:00,49.2,34.2,30.20,WNW,288,0.0,0.0,56,0.00,CLR,CLR,0.00,WeatherDisplay:10.36,2013-10-29 00:58:00,
2013-10-28 21:03:00,48.9,34.3,30.20,WNW,288,0.0,0.0,57,0.00,CLR,CLR,0.00,WeatherDisplay:10.36,2013-10-29 01:03:00,
2013-10-28 21:08:00,48.8,34.2,30.20,WNW,288,0.0,0.0,57,0.00,CLR,CLR,0.00,WeatherDisplay:10.36,2013-10-29 01:08:00,
2013-10-28 21:13:00,48.5,33.9,30.20,WNW,288,0.0,0.0,57,0.00,CLR,CLR,0.00,WeatherDisplay:10.36,2013-10-29 01:13:00,
2013-10-28 21:18:00,48.3,34.2,30.21,WNW,288,0.0,0.0,58,0.00,CLR,CLR,0.00,WeatherDisplay:10.36,2013-10-29 01:18:00,
2013-10-28 21:23:00,48.2,33.7,30.21,WNW,288,0.0,0.0,57,0.00,CLR,CLR,0.00,WeatherDisplay:10.36,2013-10-29 01:23:00,
2013-10-28 21:28:00,48.3,34.2,30.21,WNW,288,0.0,0.0,58,0.00,CLR,CLR,0.00,WeatherDisplay:10.36,2013-10-29 01:28:00,
2013-10-28 21:33:00,48.2,34.1,30.22,WNW,288,0.0,0.0,58,0.00,CLR,CLR,0.00,WeatherDisplay:10.36,2013-10-29 01:33:00,
2013-10-28 21:38:00,48.0,34.3,30.22,WNW,288,0.0,0.0,59,0.00,CLR,CLR,0.00,WeatherDisplay:10.36,2013-10-29 01:38:00,
2013-10-28 21:43:00,47.7,34.5,30.22,WNW,288,0.0,0.0,60,0.00,CLR,CLR,0.00,WeatherDisplay:10.36,2013-10-29 01:43:00,
2013-10-28 21:48:00,47.4,34.6,30.22,WNW,288,0.0,0.0,61,0.00,CLR,CLR,0.00,WeatherDisplay:10.36,2013-10-29 01:48:00,
2013-10-28 21:53:00,47.0,34.6,30.22,WNW,288,0.0,0.0,62,0.00,CLR,CLR,0.00,WeatherDisplay:10.36,2013-10-29 01:53:00,
2013-10-28 21:58:00,46.8,34.9,30.22,WNW,288,0.0,0.0,63,0.00,CLR,CLR,0.00,WeatherDisplay:10.36,2013-10-29 01:58:00,
2013-10-28 22:03:00,46.5,34.6,30.22,WNW,288,0.0,0.0,63,0.00,CLR,CLR,0.00,WeatherDisplay:10.36,2013-10-29 02:03:00,
2013-10-28 22:08:00,46.4,34.5,30.22,WNW,288,0.0,0.0,63,0.00,CLR,CLR,0.00,WeatherDisplay:10.36,2013-10-29 02:08:00,
2013-10-28 22:14:00,46.2,34.7,30.22,WNW,288,0.0,0.0,64,0.00,CLR,CLR,0.00,WeatherDisplay:10.36,2013-10-29 02:14:00,
2013-10-28 22:19:00,46.0,34.9,30.23,WNW,288,0.0,0.0,65,0.00,CLR,CLR,0.00,WeatherDisplay:10.36,2013-10-29 02:19:00,
2013-10-28 22:24:00,45.7,35.0,30.23,WNW,288,0.0,0.0,66,0.00,CLR,CLR,0.00,WeatherDisplay:10.36,2013-10-29 02:24:00,
2013-10-28 22:29:00,45.4,35.1,30.23,WNW,288,0.0,0.0,67,0.00,CLR,CLR,0.00,WeatherDisplay:10.36,2013-10-29 02:29:00,
2013-10-28 22:34:00,45.1,34.8,30.23,WNW,288,0.0,0.0,67,0.00,CLR,CLR,0.00,WeatherDisplay:10.36,2013-10-29 02:34:00,
2013-10-28 22:39:00,45.1,35.2,30.23,WNW,288,0.0,0.0,68,0.00,CLR,CLR,0.00,WeatherDisplay:10.36,2013-10-29 02:39:00,
2013-10-28 22:44:00,44.9,35.0,30.23,WNW,288,0.0,0.0,68,0.00,CLR,CLR,0.00,WeatherDisplay:10.36,2013-10-29 02:44:00,
2013-10-28 22:49:00,44.9,35.0,30.23,WNW,288,0.0,0.0,68,0.00,CLR,CLR,0.00,WeatherDisplay:10.36,2013-10-29 02:49:00,
2013-10-28 22:54:00,44.8,34.9,30.23,WNW,288,0.0,0.0,68,0.00,CLR,CLR,0.00,WeatherDisplay:10.36,2013-10-29 02:54:00,
2013-10-28 22:59:00,44.8,34.9,30.23,WNW,288,0.0,0.0,68,0.00,CLR,CLR,0.00,WeatherDisplay:10.36,2013-10-29 02:59:00,
2013-10-28 23:04:00,44.6,34.7,30.23,WNW,288,0.0,0.0,68,0.00,CLR,CLR,0.00,WeatherDisplay:10.36,2013-10-29 03:04:00,
2013-10-28 23:09:00,44.5,35.0,30.23,WNW,288,0.0,0.0,69,0.00,CLR,CLR,0.00,WeatherDisplay:10.36,2013-10-29 03:09:00,
2013-10-28 23:14:00,44.2,34.7,30.23,WNW,288,0.0,0.0,69,0.00,CLR,CLR,0.00,WeatherDisplay:10.36,2013-10-29 03:14:00,
2013-10-28 23:19:00,44.1,34.9,30.23,WNW,288,0.0,0.0,70,0.00,CLR,CLR,0.00,WeatherDisplay:10.36,2013-10-29 03:19:00,
2013-10-28 23:24:00,43.8,34.6,30.23,WNW,288,0.0,0.0,70,0.00,CLR,CLR,0.00,WeatherDisplay:10.36,2013-10-29 03:24:00,
2013-10-28 23:29:00,43.6,34.8,30.24,WNW,288,0.0,0.0,71,0.00,CLR,CLR,0.00,WeatherDisplay:10.36,2013-10-29 03:29:00,
2013-10-28 23:34:00,43.3,34.9,30.24,WNW,288,0.0,0.0,72,0.00,CLR,CLR,0.00,WeatherDisplay:10.36,2013-10-29 03:34:00,
2013-10-28 23:39:00,43.1,34.7,30.24,WNW,288,0.0,0.0,72,0.00,CLR,CLR,0.00,WeatherDisplay:10.36,2013-10-29 03:39:00,
2013-10-28 23:44:00,42.8,34.7,30.24,WNW,288,0.0,0.0,73,0.00,CLR,CLR,0.00,WeatherDisplay:10.36,2013-10-29 03:44:00,
2013-10-28 23:49:00,42.3,34.6,30.24,WNW,288,0.0,0.0,74,0.00,CLR,CLR,0.00,WeatherDisplay:10.36,2013-10-29 03:49:00,
2013-10-28 23:54:00,42.1,34.4,30.25,WNW,288,0.0,0.0,74,0.00,CLR,CLR,0.00,WeatherDisplay:10.36,2013-10-29 03:54:00,